Regional Weather Roundup
Issued by NWS Cleveland, OH

Home | Current Version | Previous Version | Text Only | Print | Product List | Glossary Off
Versions: 1 2 3 4 5 6 7 8 9 10 11 12 13 14 15 16 17 18 19 20 21 22 23 24 25 26 27 28 29 30 31 32 33 34 35 36 37 38 39 40 41 42 43 44 45 46 47 48 49 50

000
ASUS41 KCLE 261510
RWRCLE
OHIO REGIONAL WEATHER ROUNDUP
NATIONAL WEATHER SERVICE WILMINGTON, OH
1100 AM EDT THU APR 26 2018

NOTE: "FAIR" INDICATES FEW OR NO CLOUDS BELOW 12,000 FEET WITH NO
SIGNIFICANT WEATHER AND/OR OBSTRUCTIONS TO VISIBILITY.

OHZ001>008-015>018-024>027-034-035-043-044-261600-
   NORTHWEST OHIO

CITY           SKY/WX    TMP DP  RH WIND       PRES   REMARKS
DEFIANCE       FAIR      51  41  68 MISG      29.97R
FINDLAY        FAIR     N/A N/A N/A VRB3      29.95S
TOLEDO EXPRESS FAIR      50  41  71 CALM      29.96S
TOLEDO EXEC    FAIR      50  38  63 W5        29.97S
LIMA           FAIR      52  42  69 E6        29.95R
$$

OHZ009>014-019>023-028>033-038-089-261600-
   NORTHEAST OHIO

CITY           SKY/WX    TMP DP  RH WIND       PRES   REMARKS
CLE-HOPKINS    FAIR      50  37  61 CALM      29.98S
CLE-LAKEFRONT  FAIR      45  37  73 NW6       29.96S
CUY CO. ARPT   MOSUNNY   48  36  61 N9        29.96S
LORAIN-ELYRIA  FAIR      47  33  58 VRB5      29.96S
ASHTABULA      FAIR      47  34  60 VRB3      29.95S
AKRON-CANTON   FAIR      48  35  60 CALM      29.95R
WOOSTER        FAIR      47  38  71 VRB6      29.96R
MANSFIELD      FAIR      49  39  68 VRB3      29.95R
YOUNGSTOWN     FAIR      48  34  58 CALM      29.93S
$$

OHZ042-051>053-060>062-070>072-077>081-261600-
  SOUTHWEST OHIO

CITY           SKY/WX    TMP DP  RH WIND       PRES   REMARKS
CINC-COVINGTON FAIR      56  39  53 NE5       29.93S
CINC-LUNKEN    FAIR      56  42  59 E3        29.94F
HAMILTON       FAIR      55  40  56 CALM      29.95F
DAYTON         FAIR      53  45  74 S7        29.94R
WRIGHT-PAT AFB MOSUNNY   54  45  70 E3        29.93S
DAYTON GENERAL FAIR      55  44  66 S6        29.93R
WILMINGTON     FAIR      59  48  67 SE5       29.93S
$$

OHZ036-037-039>041-045>050-054>059-063>069-073>076-082>088-261600-
  CENTRAL AND SOUTHEAST OHIO

CITY           SKY/WX    TMP DP  RH WIND       PRES   REMARKS
COLUMBUS       PTSUNNY   53  41  63 E8        29.95R
OSU AIRPORT    FAIR      52  40  63 E6        29.95R
BOLTON FIELD   SUNNY     54  43  66 SE9       29.96R
RICKENBACK AFB FAIR      54  44  69 SE7       29.95R
NEWARK         PTSUNNY   52  41  66 E3        29.96R
MARION         FAIR      51  38  60 E3        29.95S
LANCASTER      FAIR      53  42  66 SE9       29.96R
ZANESVILLE     FAIR      51  41  68 VRB3      29.97R
NEW PHILLY     FAIR      49  38  65 E5        29.97R
$$




USA.gov is the U.S. government's official web portal to all federal, state and local government web resources and services.